DAE5232 MROC-KMIA

Flight info

Callsign DAE5232
Flight time 2h 18m
Altitude 34000
Route NANJO3R RADON UB767 BLU/N0463F360 UB767 PZA UZ751 SELEK UL345 IKBIX SNDBR3
Aircraft B763/H-SDE3FGHIM3RWXY/LB1

Departure

Time 2026-05-08 17:04
Airport Juan Santamaría International Airport (MROC)

Arrival

Time 2026-05-08 19:22
Airport Miami International Airport (KMIA)
Time Latitude Longitude Altitude Speed Heading
2026-05-08 16:50 9.99634 -84.21030 3031 ft 0 kts 340°
2026-05-08 16:53 9.99633 -84.21029 3031 ft 1 kts 340°
2026-05-08 16:53 9.99618 -84.21024 3031 ft 2 kts 340°
2026-05-08 16:53 9.99608 -84.21020 3031 ft 0 kts 340°
2026-05-08 16:54 9.99595 -84.21014 3031 ft 2 kts 323°
2026-05-08 16:54 9.99584 -84.21003 3031 ft 2 kts 303°
2026-05-08 16:54 9.99578 -84.20989 3031 ft 2 kts 285°
2026-05-08 16:54 9.99576 -84.20974 3031 ft 2 kts 266°
2026-05-08 16:55 9.99577 -84.20962 3031 ft 0 kts 252°
2026-05-08 16:55 9.99580 -84.20956 3031 ft 0 kts 249°
2026-05-08 16:57 9.99579 -84.20956 3031 ft 0 kts 249°
2026-05-08 16:57 9.99576 -84.20965 3031 ft 2 kts 249°
2026-05-08 16:57 9.99565 -84.20994 3031 ft 7 kts 249°
2026-05-08 16:57 9.99538 -84.21079 3031 ft 17 kts 258°
2026-05-08 16:58 9.99509 -84.21200 3031 ft 16 kts 250°
2026-05-08 16:58 9.99483 -84.21231 3031 ft 1 kts 169°
2026-05-08 16:58 9.99456 -84.21217 3031 ft 7 kts 151°
2026-05-08 16:58 9.99393 -84.21201 3031 ft 11 kts 187°
2026-05-08 16:59 9.99343 -84.21268 3031 ft 14 kts 248°
2026-05-08 16:59 9.99306 -84.21368 3031 ft 13 kts 249°
2026-05-08 16:59 9.99276 -84.21448 3031 ft 10 kts 249°
2026-05-08 16:59 9.99253 -84.21510 3031 ft 8 kts 249°
2026-05-08 17:00 9.99224 -84.21587 3031 ft 14 kts 249°
2026-05-08 17:00 9.99182 -84.21697 3031 ft 17 kts 249°
2026-05-08 17:00 9.99136 -84.21815 3031 ft 17 kts 248°
2026-05-08 17:00 9.99095 -84.21925 3031 ft 15 kts 250°
2026-05-08 17:01 9.99060 -84.22025 3031 ft 14 kts 251°
2026-05-08 17:01 9.99029 -84.22121 3031 ft 13 kts 250°
2026-05-08 17:01 9.98959 -84.22144 3031 ft 11 kts 162°
2026-05-08 17:01 9.98932 -84.22093 3031 ft 1 kts 69°
2026-05-08 17:02 9.98954 -84.22036 3031 ft 30 kts 68°
2026-05-08 17:02 9.99099 -84.21660 3031 ft 81 kts 68°
2026-05-08 17:03 9.99353 -84.20983 3031 ft 121 kts 70°
2026-05-08 17:03 9.99692 -84.20061 3033 ft 155 kts 72°
2026-05-08 17:03 10.00046 -84.18989 3339 ft 159 kts 73°
2026-05-08 17:03 10.00639 -84.18014 3535 ft 172 kts 40°
2026-05-08 17:04 10.01813 -84.17639 3815 ft 185 kts 355°
2026-05-08 17:04 10.02949 -84.18209 4234 ft 190 kts 315°
2026-05-08 17:04 10.03746 -84.19280 4653 ft 189 kts 311°
2026-05-08 17:04 10.04616 -84.20328 4861 ft 200 kts 315°
2026-05-08 17:05 10.05488 -84.21517 5012 ft 218 kts 295°
2026-05-08 17:05 10.06018 -84.22984 5256 ft 232 kts 291°
2026-05-08 17:05 10.06601 -84.24593 5498 ft 248 kts 291°
2026-05-08 17:05 10.07224 -84.26287 5833 ft 261 kts 292°
2026-05-08 17:06 10.07880 -84.28068 6089 ft 278 kts 291°
2026-05-08 17:06 10.08578 -84.29960 6477 ft 290 kts 291°
2026-05-08 17:06 10.09381 -84.31819 7044 ft 293 kts 306°
2026-05-08 17:06 10.10840 -84.33259 7626 ft 291 kts 333°
2026-05-08 17:07 10.12746 -84.33866 8212 ft 288 kts 359°
2026-05-08 17:07 10.14675 -84.33531 8901 ft 283 kts 24°
2026-05-08 17:07 10.16477 -84.32634 9333 ft 291 kts 27°
2026-05-08 17:07 10.18287 -84.31727 9973 ft 291 kts 26°
2026-05-08 17:08 10.20131 -84.30828 10362 ft 302 kts 26°
2026-05-08 17:08 10.22092 -84.29881 10554 ft 319 kts 26°
2026-05-08 17:08 10.24176 -84.28882 10756 ft 336 kts 25°
2026-05-08 17:08 10.26337 -84.27849 11143 ft 347 kts 25°
2026-05-08 17:09 10.28522 -84.26805 11771 ft 350 kts 25°
2026-05-08 17:09 10.30733 -84.25749 12367 ft 354 kts 25°
2026-05-08 17:09 10.32979 -84.24677 12981 ft 357 kts 25°
2026-05-08 17:09 10.35230 -84.23603 13587 ft 360 kts 25°
2026-05-08 17:10 10.37500 -84.22519 14179 ft 363 kts 25°
2026-05-08 17:10 10.39813 -84.21414 14770 ft 365 kts 25°
2026-05-08 17:10 10.42121 -84.20312 15341 ft 369 kts 25°
2026-05-08 17:10 10.44462 -84.19194 15911 ft 371 kts 25°
2026-05-08 17:11 10.46812 -84.18071 16469 ft 374 kts 25°
2026-05-08 17:11 10.49188 -84.16936 17019 ft 377 kts 25°
2026-05-08 17:11 10.51601 -84.15783 17570 ft 380 kts 25°
2026-05-08 17:11 10.53988 -84.14642 18101 ft 383 kts 25°
2026-05-08 17:12 10.56404 -84.13487 18632 ft 386 kts 25°
2026-05-08 17:12 10.58866 -84.12310 19158 ft 389 kts 25°
2026-05-08 17:12 10.61317 -84.11137 19670 ft 392 kts 25°
2026-05-08 17:12 10.63776 -84.09961 20170 ft 394 kts 25°
2026-05-08 17:13 10.66281 -84.08762 20669 ft 397 kts 25°
2026-05-08 17:13 10.68829 -84.07551 21157 ft 400 kts 24°
2026-05-08 17:13 10.71493 -84.06631 21615 ft 403 kts 14°
2026-05-08 17:13 10.74266 -84.05975 22097 ft 406 kts 13°
2026-05-08 17:14 10.77042 -84.05326 22558 ft 408 kts 13°
2026-05-08 17:14 10.79811 -84.04687 23013 ft 411 kts 13°
2026-05-08 17:14 10.82646 -84.04036 23474 ft 414 kts 13°
2026-05-08 17:14 10.85479 -84.03387 23927 ft 416 kts 13°
2026-05-08 17:15 10.88345 -84.02731 24375 ft 419 kts 13°
2026-05-08 17:15 10.91215 -84.02077 24851 ft 420 kts 13°
2026-05-08 17:15 10.94063 -84.01427 25313 ft 422 kts 13°
2026-05-08 17:15 10.96960 -84.00765 25744 ft 424 kts 14°
2026-05-08 17:16 10.99879 -84.00098 26165 ft 427 kts 14°
2026-05-08 17:16 11.02778 -83.99436 26560 ft 429 kts 14°
2026-05-08 17:16 11.05744 -83.98758 26933 ft 433 kts 15°
2026-05-08 17:16 11.08690 -83.98083 27339 ft 435 kts 15°
2026-05-08 17:17 11.11630 -83.97410 27719 ft 437 kts 15°
2026-05-08 17:17 11.14598 -83.96731 28096 ft 439 kts 15°
2026-05-08 17:17 11.17559 -83.96053 28469 ft 442 kts 15°
2026-05-08 17:17 11.20597 -83.95358 28843 ft 444 kts 15°
2026-05-08 17:18 11.23625 -83.94665 29206 ft 446 kts 15°
2026-05-08 17:18 11.26660 -83.93971 29566 ft 448 kts 15°
2026-05-08 17:18 11.29713 -83.93272 29923 ft 451 kts 15°
2026-05-08 17:18 11.32821 -83.92560 30269 ft 453 kts 15°
2026-05-08 17:19 11.35901 -83.91854 30612 ft 455 kts 15°
2026-05-08 17:19 11.38975 -83.91150 30944 ft 457 kts 15°
2026-05-08 17:19 11.42102 -83.90434 31271 ft 459 kts 15°
2026-05-08 17:19 11.45214 -83.89720 31611 ft 461 kts 15°
2026-05-08 17:20 11.48332 -83.89005 31925 ft 463 kts 15°
2026-05-08 17:20 11.51525 -83.88273 32243 ft 465 kts 15°
2026-05-08 17:20 11.54666 -83.87553 32605 ft 466 kts 15°
2026-05-08 17:20 11.57819 -83.86829 33038 ft 465 kts 15°
2026-05-08 17:21 11.60975 -83.86106 33465 ft 463 kts 15°
2026-05-08 17:21 11.64149 -83.85377 33868 ft 462 kts 15°
2026-05-08 17:21 11.67292 -83.84656 33979 ft 463 kts 15°
2026-05-08 17:21 11.70417 -83.83938 33961 ft 461 kts 15°
2026-05-08 17:22 11.76614 -83.82514 33965 ft 459 kts 15°
2026-05-08 17:22 11.82843 -83.81082 33965 ft 460 kts 15°
2026-05-08 17:23 11.89095 -83.79645 33964 ft 460 kts 15°
2026-05-08 17:23 11.95375 -83.78200 33965 ft 460 kts 15°
2026-05-08 17:24 12.01664 -83.76836 33964 ft 460 kts 13°
2026-05-08 17:24 12.08031 -83.75661 33965 ft 461 kts 13°
2026-05-08 17:25 12.14316 -83.74496 33965 ft 461 kts 13°
2026-05-08 17:25 12.20650 -83.73318 33964 ft 460 kts 13°
2026-05-08 17:26 12.26915 -83.72152 33964 ft 460 kts 13°
2026-05-08 17:26 12.33222 -83.70977 33964 ft 461 kts 13°
2026-05-08 17:27 12.39542 -83.69798 33964 ft 461 kts 13°
2026-05-08 17:27 12.45881 -83.68617 33964 ft 460 kts 13°
2026-05-08 17:28 12.52213 -83.67435 33964 ft 460 kts 13°
2026-05-08 17:28 12.58497 -83.66261 33964 ft 460 kts 13°
2026-05-08 17:29 12.64781 -83.65088 33964 ft 460 kts 13°
2026-05-08 17:29 12.71077 -83.63911 33964 ft 460 kts 13°
2026-05-08 17:30 12.77389 -83.62730 33964 ft 461 kts 13°
2026-05-08 17:30 12.83658 -83.61558 33963 ft 460 kts 13°
2026-05-08 17:31 12.89932 -83.60384 33964 ft 461 kts 13°
2026-05-08 17:31 12.96228 -83.59205 33963 ft 460 kts 13°
2026-05-08 17:32 13.02530 -83.58022 33955 ft 459 kts 12°
2026-05-08 17:32 13.08805 -83.56845 33945 ft 458 kts 12°
2026-05-08 17:33 13.15079 -83.55669 33939 ft 459 kts 11°
2026-05-08 17:33 13.21342 -83.54495 33938 ft 459 kts 11°
2026-05-08 17:34 13.27624 -83.53316 33938 ft 459 kts 11°
2026-05-08 17:34 13.33875 -83.52142 33938 ft 459 kts 11°
2026-05-08 17:35 13.40189 -83.50956 33938 ft 459 kts 11°
2026-05-08 17:35 13.46480 -83.49773 33938 ft 459 kts 11°
2026-05-08 17:36 13.52790 -83.48586 33937 ft 459 kts 11°
2026-05-08 17:36 13.59084 -83.47401 33937 ft 459 kts 11°
2026-05-08 17:37 13.65392 -83.46213 33937 ft 459 kts 11°
2026-05-08 17:37 13.71694 -83.45025 33937 ft 459 kts 11°
2026-05-08 17:38 13.77990 -83.43838 33937 ft 459 kts 11°
2026-05-08 17:38 13.84271 -83.42653 33937 ft 459 kts 11°
2026-05-08 17:39 13.90570 -83.41464 33937 ft 459 kts 11°
2026-05-08 17:39 13.96850 -83.40277 33937 ft 459 kts 11°
2026-05-08 17:40 14.03118 -83.39093 33937 ft 459 kts 11°
2026-05-08 17:40 14.09407 -83.38062 33937 ft 459 kts
2026-05-08 17:41 14.15748 -83.37075 33938 ft 459 kts
2026-05-08 17:41 14.22063 -83.36091 33937 ft 459 kts
2026-05-08 17:42 14.28368 -83.35106 33938 ft 459 kts
2026-05-08 17:42 14.34668 -83.34121 33940 ft 459 kts
2026-05-08 17:43 14.41001 -83.33131 33940 ft 459 kts
2026-05-08 17:43 14.47258 -83.32151 33940 ft 459 kts
2026-05-08 17:44 14.53590 -83.31160 33939 ft 459 kts
2026-05-08 17:44 14.59932 -83.30166 33940 ft 459 kts
2026-05-08 17:45 14.66334 -83.29163 33941 ft 459 kts
2026-05-08 17:45 14.72745 -83.28157 33941 ft 459 kts
2026-05-08 17:46 14.79140 -83.27153 33959 ft 459 kts
2026-05-08 17:46 14.85462 -83.26160 33983 ft 459 kts
2026-05-08 17:47 14.91835 -83.25159 34000 ft 459 kts
2026-05-08 17:47 14.97088 -83.24332 33999 ft 458 kts
2026-05-08 17:48 15.04518 -83.23163 33999 ft 460 kts
2026-05-08 17:48 15.10885 -83.22162 33999 ft 460 kts
2026-05-08 17:49 15.17247 -83.21159 34000 ft 460 kts
2026-05-08 17:49 15.23610 -83.20157 34000 ft 460 kts
2026-05-08 17:50 15.29989 -83.19151 34000 ft 460 kts
2026-05-08 17:50 15.36379 -83.18143 34000 ft 460 kts
2026-05-08 17:51 15.42739 -83.17138 34000 ft 460 kts
2026-05-08 17:51 15.49117 -83.16131 34000 ft 460 kts
2026-05-08 17:52 15.55504 -83.15121 34000 ft 460 kts
2026-05-08 17:53 15.65025 -83.13614 33999 ft 460 kts
2026-05-08 17:53 15.71388 -83.12607 33999 ft 460 kts
2026-05-08 17:54 15.77753 -83.11598 33998 ft 458 kts
2026-05-08 17:54 15.84102 -83.10592 34002 ft 458 kts
2026-05-08 17:55 15.90465 -83.09582 33999 ft 461 kts
2026-05-08 17:55 15.96834 -83.08571 33999 ft 460 kts
2026-05-08 17:56 16.03204 -83.07559 33999 ft 460 kts
2026-05-08 17:56 16.09542 -83.06551 33999 ft 460 kts
2026-05-08 17:57 16.15934 -83.05535 34000 ft 460 kts
2026-05-08 17:57 16.22272 -83.04526 34000 ft 460 kts
2026-05-08 17:58 16.28638 -83.03513 34000 ft 460 kts
2026-05-08 17:58 16.35013 -83.02496 34000 ft 460 kts
2026-05-08 17:59 16.41355 -83.01485 34000 ft 460 kts
2026-05-08 17:59 16.47704 -83.00472 34000 ft 460 kts
2026-05-08 18:00 16.54079 -82.99454 34000 ft 460 kts
2026-05-08 18:00 16.63600 -82.97932 33999 ft 460 kts
2026-05-08 18:01 16.69987 -82.96911 33999 ft 460 kts
2026-05-08 18:01 16.76346 -82.95893 33999 ft 460 kts
2026-05-08 18:02 16.81643 -82.95044 33999 ft 460 kts
2026-05-08 18:02 16.89068 -82.93855 33999 ft 460 kts
2026-05-08 18:03 16.95456 -82.92830 33999 ft 460 kts
2026-05-08 18:03 17.01790 -82.91812 33998 ft 458 kts
2026-05-08 18:04 17.08129 -82.90792 33997 ft 456 kts
2026-05-08 18:04 17.14480 -82.89771 34004 ft 463 kts
2026-05-08 18:05 17.20896 -82.88741 33998 ft 463 kts
2026-05-08 18:05 17.27270 -82.87716 34000 ft 462 kts
2026-05-08 18:06 17.33672 -82.86685 34004 ft 463 kts
2026-05-08 18:06 17.40079 -82.85653 33992 ft 464 kts
2026-05-08 18:07 17.46529 -82.84612 33913 ft 462 kts
2026-05-08 18:07 17.52907 -82.83583 33913 ft 464 kts
2026-05-08 18:08 17.59307 -82.82549 33912 ft 464 kts
2026-05-08 18:08 17.65755 -82.81507 33912 ft 464 kts
2026-05-08 18:09 17.72168 -82.80469 33912 ft 465 kts
2026-05-08 18:09 17.78625 -82.79424 33912 ft 465 kts
2026-05-08 18:10 17.85031 -82.78387 33912 ft 465 kts
2026-05-08 18:10 17.91486 -82.77340 33912 ft 465 kts
2026-05-08 18:11 17.97882 -82.76303 33912 ft 465 kts
2026-05-08 18:11 18.04302 -82.75260 33912 ft 465 kts
2026-05-08 18:12 18.10737 -82.74215 33912 ft 465 kts
2026-05-08 18:12 18.17190 -82.73166 33913 ft 465 kts
2026-05-08 18:13 18.23608 -82.72122 33913 ft 465 kts
2026-05-08 18:13 18.30026 -82.71077 33913 ft 465 kts
2026-05-08 18:14 18.36461 -82.70029 33913 ft 465 kts
2026-05-08 18:14 18.42895 -82.68979 33917 ft 465 kts
2026-05-08 18:15 18.49316 -82.67931 33944 ft 465 kts
2026-05-08 18:15 18.55762 -82.66878 33976 ft 465 kts
2026-05-08 18:16 18.62171 -82.65831 34006 ft 465 kts
2026-05-08 18:16 18.68584 -82.64782 34031 ft 465 kts
2026-05-08 18:17 18.75045 -82.63724 34048 ft 465 kts
2026-05-08 18:17 18.81444 -82.62676 34048 ft 465 kts
2026-05-08 18:18 18.87855 -82.61625 34048 ft 465 kts
2026-05-08 18:18 18.94289 -82.60568 34048 ft 465 kts
2026-05-08 18:19 19.00753 -82.59506 34048 ft 467 kts
2026-05-08 18:19 19.07204 -82.58446 34049 ft 468 kts
2026-05-08 18:20 19.13678 -82.57383 34048 ft 468 kts
2026-05-08 18:20 19.20149 -82.56318 34049 ft 468 kts
2026-05-08 18:21 19.26625 -82.55251 34049 ft 468 kts
2026-05-08 18:21 19.33098 -82.54185 34049 ft 468 kts
2026-05-08 18:22 19.39594 -82.53113 33995 ft 467 kts
2026-05-08 18:22 19.46021 -82.52052 33996 ft 468 kts
2026-05-08 18:23 19.52490 -82.50983 33995 ft 468 kts
2026-05-08 18:23 19.58972 -82.49910 33995 ft 468 kts
2026-05-08 18:24 19.65444 -82.48839 33995 ft 468 kts
2026-05-08 18:24 19.71895 -82.47770 33995 ft 468 kts
2026-05-08 18:25 19.78396 -82.46692 33995 ft 468 kts
2026-05-08 18:25 19.84836 -82.45624 33995 ft 468 kts
2026-05-08 18:26 19.91299 -82.44550 33995 ft 468 kts
2026-05-08 18:26 19.97761 -82.43476 33995 ft 468 kts
2026-05-08 18:27 20.03177 -82.42575 33995 ft 468 kts
2026-05-08 18:27 20.10710 -82.41113 33997 ft 470 kts 13°
2026-05-08 18:28 20.17049 -82.39223 33996 ft 470 kts 13°
2026-05-08 18:28 20.23381 -82.37318 33996 ft 470 kts 13°
2026-05-08 18:29 20.29699 -82.35410 33996 ft 470 kts 13°
2026-05-08 18:29 20.36015 -82.33497 33991 ft 470 kts 14°
2026-05-08 18:30 20.42355 -82.31574 33991 ft 470 kts 14°
2026-05-08 18:30 20.48674 -82.29662 33991 ft 470 kts 13°
2026-05-08 18:31 20.55018 -82.27766 33992 ft 470 kts 13°
2026-05-08 18:31 20.61336 -82.25876 33992 ft 470 kts 13°
2026-05-08 18:32 20.67686 -82.23973 33992 ft 470 kts 13°
2026-05-08 18:32 20.74030 -82.22072 33992 ft 470 kts 13°
2026-05-08 18:33 20.80353 -82.20174 33992 ft 470 kts 13°
2026-05-08 18:33 20.86673 -82.18276 33992 ft 470 kts 13°
2026-05-08 18:34 20.93034 -82.16364 33992 ft 470 kts 13°
2026-05-08 18:34 20.99367 -82.14459 33997 ft 471 kts 13°
2026-05-08 18:35 21.05739 -82.12540 34020 ft 473 kts 13°
2026-05-08 18:35 21.12122 -82.10616 34040 ft 475 kts 13°
2026-05-08 18:36 21.18535 -82.08682 34045 ft 475 kts 13°
2026-05-08 18:36 21.24947 -82.06746 34045 ft 475 kts 13°
2026-05-08 18:37 21.31338 -82.04814 34043 ft 475 kts 13°
2026-05-08 18:37 21.37711 -82.02887 34041 ft 475 kts 13°
2026-05-08 18:38 21.44111 -82.00949 34040 ft 475 kts 13°
2026-05-08 18:38 21.50515 -81.99009 34037 ft 475 kts 13°
2026-05-08 18:39 21.56915 -81.97067 34035 ft 475 kts 13°
2026-05-08 18:39 21.63345 -81.95116 34033 ft 475 kts 13°
2026-05-08 18:40 21.69700 -81.93185 34031 ft 475 kts 13°
2026-05-08 18:40 21.76089 -81.91241 34029 ft 475 kts 13°
2026-05-08 18:41 21.82441 -81.89307 34027 ft 475 kts 13°
2026-05-08 18:41 21.88870 -81.87348 34025 ft 475 kts 13°
2026-05-08 18:42 21.95248 -81.85403 34024 ft 475 kts 13°
2026-05-08 18:42 22.01617 -81.83459 34021 ft 475 kts 13°
2026-05-08 18:43 22.08025 -81.81501 34022 ft 475 kts 13°
2026-05-08 18:43 22.14391 -81.79554 34021 ft 475 kts 13°
2026-05-08 18:44 22.20794 -81.77594 34021 ft 475 kts 13°
2026-05-08 18:44 22.27210 -81.75628 34021 ft 475 kts 13°
2026-05-08 18:45 22.33564 -81.73679 34021 ft 475 kts 13°
2026-05-08 18:45 22.40001 -81.71728 34022 ft 475 kts 12°
2026-05-08 18:46 22.46407 -81.69814 34022 ft 475 kts 12°
2026-05-08 18:46 22.52772 -81.67911 34022 ft 475 kts 12°
2026-05-08 18:47 22.59132 -81.66006 34022 ft 475 kts 12°
2026-05-08 18:47 22.65547 -81.64083 34022 ft 475 kts 12°
2026-05-08 18:48 22.71933 -81.62167 34022 ft 475 kts 12°
2026-05-08 18:48 22.78305 -81.60254 34023 ft 475 kts 12°
2026-05-08 18:49 22.84681 -81.58337 34023 ft 475 kts 12°
2026-05-08 18:49 22.91042 -81.56422 34023 ft 475 kts 12°
2026-05-08 18:50 22.97481 -81.54481 34024 ft 477 kts 11°
2026-05-08 18:50 23.03927 -81.52536 34025 ft 477 kts 10°
2026-05-08 18:51 23.10336 -81.50603 34025 ft 477 kts 10°
2026-05-08 18:51 23.16718 -81.48678 34025 ft 477 kts 10°
2026-05-08 18:52 23.23159 -81.46730 34025 ft 476 kts 10°
2026-05-08 18:52 23.29586 -81.44785 34026 ft 476 kts 10°
2026-05-08 18:53 23.35973 -81.42849 34026 ft 476 kts 10°
2026-05-08 18:53 23.42432 -81.40889 34026 ft 476 kts 10°
2026-05-08 18:54 23.48813 -81.38951 34026 ft 476 kts 10°
2026-05-08 18:54 23.55266 -81.36989 34027 ft 476 kts 10°
2026-05-08 18:55 23.64880 -81.34062 34015 ft 476 kts 10°
2026-05-08 18:56 23.71306 -81.32104 34018 ft 477 kts 10°
2026-05-08 18:56 23.77723 -81.30146 34026 ft 477 kts 10°
2026-05-08 18:57 23.84163 -81.28179 34033 ft 477 kts 10°
2026-05-08 18:57 23.90575 -81.26219 34036 ft 477 kts 10°
2026-05-08 18:58 23.96993 -81.24255 34039 ft 476 kts 10°
2026-05-08 18:58 24.03506 -81.22835 34051 ft 470 kts
2026-05-08 18:59 24.10022 -81.21897 34043 ft 470 kts
2026-05-08 18:59 24.16538 -81.20959 34043 ft 470 kts
2026-05-08 18:59 24.19800 -81.20486 33985 ft 454 kts
2026-05-08 19:00 24.21864 -81.20185 33740 ft 449 kts
2026-05-08 19:00 24.26024 -81.19589 32966 ft 447 kts
2026-05-08 19:00 24.29121 -81.19144 32412 ft 444 kts
2026-05-08 19:00 24.32164 -81.18706 31878 ft 441 kts
2026-05-08 19:01 24.35230 -81.18264 31354 ft 440 kts
2026-05-08 19:01 24.38266 -81.17828 30849 ft 442 kts
2026-05-08 19:01 24.41336 -81.17385 30338 ft 442 kts
2026-05-08 19:01 24.44400 -81.16941 29827 ft 438 kts
2026-05-08 19:02 24.47419 -81.16505 29330 ft 434 kts
2026-05-08 19:02 24.50417 -81.16071 28843 ft 430 kts
2026-05-08 19:02 24.53374 -81.15642 28368 ft 427 kts
2026-05-08 19:02 24.56325 -81.15216 27895 ft 424 kts
2026-05-08 19:03 24.59259 -81.14799 27440 ft 420 kts
2026-05-08 19:03 24.62184 -81.14481 26958 ft 417 kts
2026-05-08 19:03 24.65093 -81.14173 26479 ft 414 kts
2026-05-08 19:03 24.67969 -81.13866 26007 ft 411 kts
2026-05-08 19:04 24.70814 -81.13562 25544 ft 407 kts
2026-05-08 19:04 24.73678 -81.13255 25079 ft 405 kts
2026-05-08 19:04 24.76471 -81.12956 24628 ft 402 kts
2026-05-08 19:04 24.79282 -81.12655 24174 ft 399 kts
2026-05-08 19:05 24.82052 -81.12357 23726 ft 397 kts
2026-05-08 19:05 24.84782 -81.12055 23285 ft 394 kts
2026-05-08 19:05 24.87495 -81.11297 22832 ft 398 kts 18°
2026-05-08 19:05 24.90054 -81.10085 22235 ft 401 kts 20°
2026-05-08 19:06 24.92622 -81.08834 21615 ft 402 kts 20°
2026-05-08 19:06 24.95182 -81.07579 20989 ft 402 kts 21°
2026-05-08 19:06 24.97753 -81.06316 20349 ft 403 kts 21°
2026-05-08 19:06 25.00289 -81.05063 19812 ft 390 kts 21°
2026-05-08 19:07 25.02767 -81.03842 19188 ft 390 kts 21°
2026-05-08 19:07 25.05187 -81.02646 18538 ft 374 kts 21°
2026-05-08 19:07 25.07580 -81.01465 17976 ft 370 kts 21°
2026-05-08 19:07 25.09941 -81.00299 17413 ft 367 kts 22°
2026-05-08 19:08 25.12253 -80.99156 16861 ft 364 kts 22°
2026-05-08 19:08 25.14555 -80.98018 16311 ft 361 kts 22°
2026-05-08 19:08 25.16883 -80.96866 15759 ft 362 kts 22°
2026-05-08 19:08 25.19177 -80.95731 15188 ft 363 kts 22°
2026-05-08 19:09 25.21511 -80.94575 14556 ft 361 kts 22°
2026-05-08 19:09 25.23776 -80.93452 13949 ft 353 kts 23°
2026-05-08 19:09 25.26015 -80.92342 13446 ft 347 kts 23°
2026-05-08 19:09 25.28210 -80.91254 13009 ft 343 kts 23°
2026-05-08 19:10 25.30410 -80.90163 12514 ft 342 kts 23°
2026-05-08 19:10 25.32583 -80.89084 12063 ft 340 kts 23°
2026-05-08 19:10 25.34750 -80.88008 11575 ft 340 kts 23°
2026-05-08 19:10 25.36942 -80.86919 10985 ft 344 kts 23°
2026-05-08 19:11 25.39119 -80.85847 10455 ft 333 kts 22°
2026-05-08 19:11 25.41183 -80.84897 10441 ft 303 kts 21°
2026-05-08 19:11 25.43151 -80.83987 10479 ft 308 kts 21°
2026-05-08 19:11 25.45130 -80.83088 10412 ft 303 kts 19°
2026-05-08 19:12 25.47144 -80.82320 10097 ft 302 kts 17°
2026-05-08 19:12 25.49097 -80.81593 9746 ft 292 kts 18°
2026-05-08 19:12 25.51028 -80.80868 9486 ft 289 kts 18°
2026-05-08 19:12 25.52936 -80.80151 9192 ft 286 kts 18°
2026-05-08 19:13 25.54856 -80.79427 8898 ft 285 kts 18°
2026-05-08 19:13 25.56744 -80.78715 8611 ft 285 kts 18°
2026-05-08 19:13 25.58635 -80.78001 8326 ft 284 kts 18°
2026-05-08 19:13 25.60494 -80.77298 8044 ft 284 kts 18°
2026-05-08 19:14 25.62383 -80.76584 7759 ft 283 kts 18°
2026-05-08 19:14 25.64192 -80.75731 7470 ft 282 kts 34°
2026-05-08 19:14 25.65610 -80.74197 7197 ft 281 kts 52°
2026-05-08 19:14 25.66815 -80.72491 6870 ft 281 kts 52°
2026-05-08 19:15 25.68033 -80.70753 6539 ft 281 kts 53°
2026-05-08 19:15 25.69233 -80.69022 6221 ft 280 kts 53°
2026-05-08 19:15 25.70407 -80.67316 5928 ft 278 kts 54°
2026-05-08 19:15 25.71592 -80.65589 5622 ft 277 kts 53°
2026-05-08 19:16 25.72754 -80.63894 5332 ft 275 kts 54°
2026-05-08 19:16 25.73919 -80.62192 5023 ft 274 kts 54°
2026-05-08 19:16 25.75073 -80.60503 4713 ft 273 kts 54°
2026-05-08 19:16 25.76241 -80.58794 4412 ft 272 kts 54°
2026-05-08 19:17 25.77223 -80.57016 4112 ft 267 kts 73°
2026-05-08 19:17 25.77501 -80.55004 3861 ft 260 kts 89°
2026-05-08 19:17 25.77593 -80.52984 3582 ft 259 kts 88°
2026-05-08 19:17 25.77720 -80.50986 3318 ft 257 kts 87°
2026-05-08 19:18 25.77856 -80.49020 3088 ft 254 kts 87°
2026-05-08 19:18 25.77965 -80.47073 2776 ft 243 kts 89°
2026-05-08 19:18 25.78038 -80.45262 2460 ft 228 kts 90°
2026-05-08 19:18 25.78111 -80.43545 2167 ft 214 kts 89°
2026-05-08 19:19 25.78179 -80.41927 1918 ft 199 kts 89°
2026-05-08 19:19 25.78241 -80.40418 1657 ft 188 kts 89°
2026-05-08 19:19 25.78300 -80.39031 1451 ft 172 kts 89°
2026-05-08 19:19 25.78353 -80.37749 1173 ft 158 kts 89°
2026-05-08 19:20 25.78402 -80.36578 1005 ft 143 kts 89°
2026-05-08 19:20 25.78418 -80.36208 939 ft 140 kts 90°
2026-05-08 19:20 25.78490 -80.34392 638 ft 140 kts 89°
2026-05-08 19:20 25.78532 -80.33289 448 ft 141 kts 89°
2026-05-08 19:21 25.78577 -80.32207 256 ft 137 kts 89°
2026-05-08 19:21 25.78623 -80.31145 75 ft 138 kts 90°
2026-05-08 19:21 25.78669 -80.30090 17 ft 125 kts 86°
2026-05-08 19:21 25.78701 -80.29366 16 ft 63 kts 87°
2026-05-08 19:22 25.78714 -80.29020 16 ft 34 kts 88°
2026-05-08 19:22 25.78746 -80.28772 16 ft 29 kts 68°
2026-05-08 19:22 25.78833 -80.28663 16 ft 11 kts 33°
2026-05-08 19:22 25.78884 -80.28659 16 ft 5 kts 349°
2026-05-08 19:23 25.78920 -80.28669 16 ft 4 kts 335°
2026-05-08 19:23 25.78943 -80.28699 16 ft 6 kts 298°
2026-05-08 19:23 25.78950 -80.28779 16 ft 14 kts 269°
2026-05-08 19:23 25.78999 -80.28868 16 ft 13 kts 341°
2026-05-08 19:24 25.79074 -80.28911 16 ft 10 kts 316°
2026-05-08 19:24 25.79106 -80.28966 16 ft 7 kts 298°
2026-05-08 19:24 25.79130 -80.29017 16 ft 7 kts 298°
2026-05-08 19:24 25.79144 -80.29067 16 ft 5 kts 257°
2026-05-08 19:25 25.79111 -80.29101 16 ft 7 kts 213°
2026-05-08 19:25 25.79096 -80.29111 16 ft 0 kts 210°